When you browse on this site, cookies collect data to enhance your experience and personalize the content and advertising you see.
Visit our Privacy Policy to learn more. By continuing to use the site, you agree to this use of cookies and data.
  • In United Kingdom
  • List of Countries
  • For 7 days
  • Water Temperature
  • Weather Map
  • Weather Widgets
  • user-avatar
    Login

    Hourly Weather Cardiff

    Today, 2 June, Tuesday

    Time Temperature Precipitation Wind Pressure Humidity
    00:00 +14°C° 0 mm 2 mps 765 mmHg 88%
    01:00 +13°C° 0 mm 3 mps 765 mmHg 89%
    02:00 +12°C° 0 mm 3 mps 765 mmHg 91%
    03:00 +12°C° 0 mm 3 mps 765 mmHg 92%
    04:00 +12°C° 0 mm 3 mps 764 mmHg 90%
    05:00 +13°C° 0 mm 3 mps 764 mmHg 87%
    06:00 +15°C° 0 mm 2 mps 764 mmHg 87%
    07:00 +17°C° 0 mm 2 mps 764 mmHg 81%
    08:00 +18°C° 0 mm 2 mps 764 mmHg 74%
    09:00 +20°C° 0 mm 2 mps 764 mmHg 68%
    10:00 +20°C° 0 mm 2 mps 764 mmHg 66%
    11:00 +21°C° 0 mm 2 mps 763 mmHg 64%
    12:00 +23°C° 0 mm 2 mps 763 mmHg 61%
    13:00 +23°C° 0 mm 2 mps 762 mmHg 62%
    14:00 +23°C° 0 mm 2 mps 762 mmHg 63%
    15:00 +22°C° 0 mm 3 mps 761 mmHg 64%
    16:00 +22°C° 0.1 mm 3 mps 761 mmHg 66%
    17:00 +22°C° 0.1 mm 3 mps 761 mmHg 69%
    18:00 +21°C° 0.1 mm 3 mps 760 mmHg 71%
    19:00 +19°C° 0.1 mm 3 mps 760 mmHg 76%
    20:00 +18°C° 0.1 mm 2 mps 759 mmHg 80%
    21:00 +16°C° 0.1 mm 2 mps 759 mmHg 84%
    22:00 +16°C° 0.1 mm 2 mps 759 mmHg 82%
    23:00 +16°C° 0.1 mm 2 mps 759 mmHg 80%

    Tomorrow, 3 June, Wednesday

    Time Temperature Precipitation Wind Pressure Humidity
    00:00 +16°C° 0.1 mm 2 mps 758 mmHg 78%
    01:00 +16°C° 0.2 mm 2 mps 758 mmHg 78%
    02:00 +15°C° 0.2 mm 2 mps 757 mmHg 78%
    03:00 +15°C° 0.2 mm 1 mps 756 mmHg 77%
    04:00 +15°C° 0.1 mm 1 mps 756 mmHg 79%
    05:00 +15°C° 0.1 mm 1 mps 756 mmHg 81%
    06:00 +15°C° 0.1 mm 1 mps 755 mmHg 83%
    07:00 +15°C° 0.5 mm 1 mps 755 mmHg 86%
    08:00 +15°C° 0.5 mm 1 mps 755 mmHg 88%
    09:00 +15°C° 0.5 mm 1 mps 755 mmHg 91%
    10:00 +15°C° 0.9 mm 1 mps 755 mmHg 92%
    11:00 +14°C° 0.9 mm 2 mps 754 mmHg 93%
    12:00 +14°C° 0.9 mm 2 mps 754 mmHg 94%
    13:00 +13°C° 0.6 mm 3 mps 754 mmHg 94%
    14:00 +13°C° 0.6 mm 5 mps 754 mmHg 94%
    15:00 +11°C° 0.6 mm 6 mps 754 mmHg 94%
    16:00 +11°C° 0.2 mm 6 mps 754 mmHg 93%
    17:00 +11°C° 0.2 mm 6 mps 754 mmHg 92%
    18:00 +11°C° 0.2 mm 6 mps 754 mmHg 92%
    19:00 +10°C° 0 mm 6 mps 754 mmHg 92%
    20:00 +10°C° 0 mm 5 mps 755 mmHg 92%
    21:00 +10°C° 0 mm 5 mps 755 mmHg 92%
    22:00 +9°C° 0 mm 5 mps 755 mmHg 91%
    23:00 +10°C° 0 mm 4 mps 755 mmHg 91%

    Day after tomorrow, 4 June, Thursday

    Time Temperature Precipitation Wind Pressure Humidity
    00:00 +9°C° 0 mm 3 mps 754 mmHg 91%
    01:00 +9°C° 0 mm 3 mps 754 mmHg 91%
    02:00 +9°C° 0 mm 3 mps 754 mmHg 91%
    03:00 +9°C° 0 mm 3 mps 753 mmHg 91%
    04:00 +9°C° 0 mm 3 mps 753 mmHg 89%
    05:00 +10°C° 0 mm 3 mps 753 mmHg 88%
    06:00 +10°C° 0 mm 3 mps 753 mmHg 87%
    07:00 +11°C° 0 mm 3 mps 753 mmHg 83%
    08:00 +12°C° 0 mm 3 mps 753 mmHg 79%
    09:00 +13°C° 0 mm 3 mps 753 mmHg 75%
    10:00 +14°C° 0.1 mm 4 mps 753 mmHg 71%
    11:00 +15°C° 0.1 mm 5 mps 752 mmHg 67%
    12:00 +15°C° 0.1 mm 6 mps 752 mmHg 63%
    13:00 +15°C° 0 mm 6 mps 752 mmHg 63%
    14:00 +15°C° 0 mm 7 mps 752 mmHg 64%
    15:00 +15°C° 0 mm 8 mps 751 mmHg 65%
    16:00 +14°C° 0 mm 7 mps 751 mmHg 69%
    17:00 +14°C° 0 mm 7 mps 751 mmHg 73%
    18:00 +12°C° 0 mm 7 mps 751 mmHg 76%
    19:00 +13°C° 0 mm 6 mps 750 mmHg 80%
    20:00 +11°C° 0 mm 6 mps 750 mmHg 83%
    21:00 +12°C° 0 mm 5 mps 750 mmHg 87%
    22:00 +10°C° 0.1 mm 5 mps 750 mmHg 89%
    23:00 +10°C° 0.1 mm 4 mps 750 mmHg 90%

    5 June, Friday

    Time Temperature Precipitation Wind Pressure Humidity
    00:00 +10°C° 0.1 mm 4 mps 749 mmHg 92%
    01:00 +8°C° 0 mm 4 mps 749 mmHg 92%
    02:00 +8°C° 0 mm 5 mps 749 mmHg 92%
    03:00 +8°C° 0 mm 5 mps 749 mmHg 92%
    04:00 +8°C° 0 mm 5 mps 749 mmHg 89%
    05:00 +8°C° 0 mm 6 mps 749 mmHg 86%
    06:00 +9°C° 0 mm 6 mps 749 mmHg 83%
    07:00 +10°C° 0 mm 7 mps 749 mmHg 77%
    08:00 +11°C° 0 mm 7 mps 749 mmHg 70%
    09:00 +12°C° 0 mm 7 mps 749 mmHg 63%
    10:00 +14°C° 0 mm 7 mps 749 mmHg 61%
    11:00 +14°C° 0 mm 7 mps 749 mmHg 58%
    12:00 +15°C° 0 mm 7 mps 749 mmHg 56%
    13:00 +15°C° 0 mm 7 mps 748 mmHg 55%
    14:00 +15°C° 0 mm 7 mps 748 mmHg 55%
    15:00 +15°C° 0 mm 8 mps 748 mmHg 54%
    16:00 +14°C° 0 mm 7 mps 748 mmHg 60%
    17:00 +12°C° 0 mm 7 mps 748 mmHg 66%
    18:00 +11°C° 0 mm 7 mps 748 mmHg 72%
    19:00 +10°C° 0.1 mm 6 mps 748 mmHg 77%
    20:00 +8°C° 0.1 mm 5 mps 749 mmHg 82%
    21:00 +7°C° 0.1 mm 4 mps 749 mmHg 87%
    22:00 +6°C° 0 mm 4 mps 749 mmHg 87%
    23:00 +6°C° 0 mm 4 mps 749 mmHg 86%

    6 June, Saturday

    Time Temperature Precipitation Wind Pressure Humidity
    00:00 +5°C° 0 mm 4 mps 749 mmHg 86%
    01:00 +5°C° 0 mm 4 mps 749 mmHg 86%
    02:00 +5°C° 0 mm 5 mps 749 mmHg 87%
    03:00 +3°C° 0 mm 5 mps 750 mmHg 87%
    04:00 +4°C° 0 mm 6 mps 750 mmHg 84%
    05:00 +5°C° 0 mm 7 mps 750 mmHg 81%
    06:00 +5°C° 0 mm 7 mps 750 mmHg 78%
    07:00 +6°C° 0 mm 8 mps 750 mmHg 74%
    08:00 +7°C° 0 mm 8 mps 750 mmHg 69%
    09:00 +8°C° 0 mm 9 mps 750 mmHg 65%
    10:00 +10°C° 0.1 mm 9 mps 750 mmHg 64%
    11:00 +11°C° 0.1 mm 9 mps 750 mmHg 62%
    12:00 +11°C° 0.1 mm 9 mps 750 mmHg 60%
    13:00 +11°C° 0.1 mm 9 mps 750 mmHg 63%
    14:00 +11°C° 0.1 mm 9 mps 750 mmHg 66%
    15:00 +10°C° 0.1 mm 9 mps 749 mmHg 69%
    16:00 +10°C° 0 mm 9 mps 749 mmHg 70%
    17:00 +10°C° 0 mm 9 mps 749 mmHg 71%
    18:00 +11°C° 0 mm 8 mps 749 mmHg 72%
    19:00 +10°C° 0.1 mm 8 mps 749 mmHg 76%
    20:00 +9°C° 0.1 mm 8 mps 749 mmHg 80%
    21:00 +9°C° 0.1 mm 7 mps 749 mmHg 83%
    22:00 +9°C° 0.2 mm 8 mps 749 mmHg 85%
    23:00 +9°C° 0.2 mm 8 mps 749 mmHg 87%

    7 June, Sunday

    Time Temperature Precipitation Wind Pressure Humidity
    00:00 +9°C° 0.2 mm 8 mps 749 mmHg 88%
    01:00 +9°C° 0.2 mm 8 mps 749 mmHg 89%
    02:00 +9°C° 0.2 mm 7 mps 749 mmHg 90%
    03:00 +9°C° 0.2 mm 7 mps 749 mmHg 91%
    04:00 +9°C° 0.1 mm 6 mps 749 mmHg 91%
    05:00 +9°C° 0.1 mm 6 mps 749 mmHg 90%
    06:00 +9°C° 0.1 mm 5 mps 749 mmHg 90%
    07:00 +12°C° 0.1 mm 5 mps 749 mmHg 85%
    08:00 +13°C° 0.1 mm 5 mps 749 mmHg 81%
    09:00 +14°C° 0.1 mm 5 mps 749 mmHg 76%
    10:00 +15°C° 0.6 mm 6 mps 750 mmHg 75%
    11:00 +15°C° 0.6 mm 6 mps 750 mmHg 74%
    12:00 +16°C° 0.6 mm 6 mps 750 mmHg 73%
    13:00 +16°C° 0.9 mm 6 mps 750 mmHg 74%
    14:00 +16°C° 0.9 mm 6 mps 750 mmHg 74%
    15:00 +16°C° 0.9 mm 6 mps 750 mmHg 75%
    16:00 +16°C° 0.6 mm 6 mps 751 mmHg 76%
    17:00 +15°C° 0.6 mm 6 mps 751 mmHg 77%
    18:00 +15°C° 0.6 mm 5 mps 751 mmHg 78%
    19:00 +14°C° 0.2 mm 5 mps 752 mmHg 80%
    20:00 +12°C° 0.2 mm 4 mps 752 mmHg 82%
    21:00 +11°C° 0.2 mm 4 mps 753 mmHg 84%
    22:00 +11°C° 0 mm 4 mps 753 mmHg 84%
    23:00 +11°C° 0 mm 3 mps 753 mmHg 84%
    Show more